STARLINK-34190, 64078

Orbit data source: Space-Track

STARLINK-34190, 64078 is a payload satellite owned by SpaceX/Seattle (US) in LEO that was launched on Wed, 21 May 2025 UTC via an FALCON 9 launch vehicle from the Air Force Eastern Test Range (AFETR). Payload-class satellites include a variety of spacecraft equipped with specific instruments for various scientific and technological missions. These include communications satellites like Starlink; space stations such as the ISS; scientific satellites like the Hubble; Earth observation satellites from companies like Planet Labs, Umbra, and HawkEye 360; GPS; miniature CubeSats for education and research; and military/defense satellites.

Loading next visibility...
Identifier
64078, 2025-107Q
Orbit
LEO
Country
Flag of USUS
Related business
Manufacturer
SpaceX/Seattle
Mission
Operational Commercial Communications
Bus & Motor
STARLINK V2MO, Unknown motor
Mass
575 kg wet, ~530 kg dry
Launch date (UTC)
2025-05-21 (1 year ago)
Launch vehicle
FALCON 9
Launch site
Air Force Eastern Test Range (AFETR)
Object type
Payload
Rocket body
Debris
Shape & HBR
Box + 2 Pan, 17.7 m
Radar Cross Section
36.964 m², Large (>1 m²)

Expand to show TLE details & history
Last TLE update: 16 hours ago

TLE from 16 hours ago
0 STARLINK-34190
1 64078U 25107Q   26171.16678081  .00015602  00000-0  57482-3 0  9997
2 64078  43.0002 342.7570 0002815 286.1805  73.8736 15.27604722 61793
Epoch: 2026-06-20T04:00Z
TLE epoch observation values (Epoch: 2026-06-20T04:00:09.861Z)
Latitude
-0.00009°
Longitude
14.33052°
Altitude
482.215 km
Speed
7.626 km/s
True Right ascension
22h 51m 01s
True Declination
0° 00' 00"
Sunlit
Object was in daylight at epoch
Visualization orbit readout
Latitude
Unknown
Longitude
Unknown
Altitude
Unknown
Speed
Unknown
Apparent Right ascension
Unknown
Apparent Declination
Unknown
Sunlit
N/A
Visualization observer readout
Local Sidereal Time
07:19:40
Azimuth
Unknown
Elevation
Unknown
Doppler factor
Unknown
Orbital elements
Apogee altitude
486.852 km
Perigee altitude
482.988 km
Semi-major axis
6,863.057 km
Eccentricity
0.00028
Inclination
43.0002°
RAAN
342.757°
Arg. of periapsis
286.1805°
True anomaly
73.90459°
Mean anomaly
73.8736°
Eccentric anomaly
73.8891°
Mean motion
3.81739 °/min
Orbital period
94.31 mins
BSTAR
0.00057482
Loading maneuver chart data...
Computing Atmospheric mass density...
Loading historical data...
Loading historical data...
Loading historical data...
Loading historical data...
Loading historical data...
Loading historical data...
Loading historical data...

Documentation

Showing up to 5 results
|